User: anonymous   Login
Location: Fort Wayne
(41.1310°N, 85.1290°W)
Time: 10:46:03
(UTC-04:00)
Language:

Helios 1B - Orbit

View from above orbital plane
View from above orbital plane
View from above satellite
View from above satellite

Ground track
Ground track

The orbit data is extracted from the following two-line orbital elements,

1 25977U 99064A   17201.37353170 +.00000066 +00000-0 +15236-4 0  9991
2 25977 098.1533 313.4967 0001930 132.9996 227.1379 14.82275270948927
Epoch (UTC): 20 July 2017 08:57:53
Eccentricity: 0.0001930
inclination: 98.1533°
perigee height: 621 km
apogee height: 623 km
right ascension of ascending node: 313.4967°
argument of perigee: 132.9996°
revolutions per day: 14.82275270
mean anomaly at epoch: 227.1379°
orbit number at epoch: 94892

The dashed part of the orbit path shows where the satellite is in the earth's shadow,  

DLR